Location: Bismarck
(46.7731°N, 100.8200°W)
Time: 06:31:49
(UTC-06:00)

ISS - Pass Details

Date: 03 December 2017
Orbit: 403 x 407 km, 51.6° (Epoch: 12 December)

Event Time Altitude Azimuth Distance (km) Brightness Sun altitude
Rises 21:01:40 0° 293° (WNW) 2,331 - -41.1°
Reaches altitude 10° 21:03:49 10° 300° (WNW) 1,469 - -41.5°
Maximum altitude 21:07:00 44° 15° (NNE) 577 - -42.0°
Drops below altitude 10° 21:10:09 10° 89° (E) 1,463 - -42.6°
Sets 21:12:17 0° 96° (E) 2,320 - -42.9°
